Home   Weather   Reims   Past weeks

Flag for France Past Weather in Reims, Champagne-Ardenne, France — Yesterday and Last 2 Weeks

Now
63 °F

Passing clouds.


Feels Like: 63 °F
Forecast: 44 / 69 °F
Wind: 6 mph from North

Location: Chalons-Vatry

Current Time: Sep 26, 2016 at 3:55:10 PM

Latest Report: Sep 26, 2016 at 3:30 PM


Visibility: N/A

Pressure: 30.21 "Hg

Humidity: 59%

Dew Point: 48 °F

Location of ReimsLocation

Past Weather in Reims — Graph

°F

Reims Temperature Yesterday

Maximum temperature yesterday: 73 °F (at 2:00 PM)
Minimum temperature yesterday: 54 °F (at 1:30 AM)
Average temperature yesterday: 60 °F

High & Low Weather Summary for the Past Weeks

 TemperatureHumidityPressure
High88 °F (Sep 12, 3:00 PM)100% (Sep 15, 10:30 AM)30.30 "Hg (Sep 15, 10:30 AM)
Low48 °F (Sep 22, 5:00 AM)31% (Sep 24, 4:30 PM)29.80 "Hg (Sep 13, 7:00 PM)
Average63 °F77%30.05 "Hg
* Reported Sep 11 2:00 PM — Sep 26 2:30 PM, Reims, Weather by CustomWeather, © 2016

Note: Actual official high and low records may vary slightly from our data, if they occured in-between our weather recording intervals... More about our weather records

Advertising

Reims Weather History for the Previous 24 Hours

Scroll right to see more
 ConditionsComfort  
Time TempWeatherWind HumidityBarometerVisibility
2:30 PM
Mon, Sep 26
63 °FSunny.5 mph52%30.21 "Hg10 mi
2:00 PM63 °FPassing clouds.3 mph56%30.21 "HgN/A
1:30 PM61 °FSunny.6 mph59%30.24 "Hg10 mi
1:00 PM61 °FPassing clouds.6 mph68%30.24 "HgN/A
12:30 PM59 °FSunny.7 mph72%30.24 "Hg10 mi
12:00 PM55 °FPassing clouds.5 mph82%30.24 "HgN/A
11:30 AM54 °FSunny.3 mph94%30.24 "Hg10 mi
11:00 AM54 °FScattered clouds.2 mph94%30.27 "HgN/A
10:30 AM54 °FFog.3 mph94%30.27 "HgN/A
10:00 AM52 °FFog.3 mph100%30.27 "Hg1 mi
9:30 AM50 °FFog.3 mph100%30.24 "Hg0 mi
9:00 AM50 °FDense fog.3 mph94%30.24 "Hg1 mi
8:30 AM50 °FFog.No wind100%30.24 "Hg3 mi
8:00 AM48 °FFog.5 mph100%30.24 "HgN/A
7:30 AM48 °FPartly cloudy.6 mph94%30.24 "HgN/A
7:00 AM48 °FPassing clouds.5 mph100%30.24 "HgN/A
6:30 AM48 °FPassing clouds.5 mph94%30.24 "Hg6 mi
6:00 AM48 °FPartly cloudy.3 mph100%30.24 "Hg4 mi
5:30 AM50 °FLight fog.5 mph94%30.24 "Hg5 mi
5:00 AM50 °FClear.3 mph100%30.24 "Hg10 mi
4:30 AM50 °FClear.5 mph94%30.24 "Hg10 mi
4:00 AM50 °FClear.3 mph100%30.24 "Hg10 mi
3:30 AM50 °FClear.2 mph94%30.24 "Hg10 mi
3:00 AM52 °FClear.2 mph94%30.24 "Hg10 mi
2:30 AM50 °FClear.1 mph100%30.24 "Hg10 mi
2:00 AM50 °FClear.2 mph94%30.24 "Hg10 mi
1:30 AM50 °FClear.2 mph100%30.24 "Hg6 mi
1:00 AM50 °FClear.2 mph94%30.24 "Hg10 mi
12:30 AM54 °FClear.2 mph94%30.24 "Hg10 mi
12:00 AM54 °FClear.3 mph94%30.24 "Hg10 mi
11:30 PM
Sun, Sep 25
54 °FClear.3 mph94%30.24 "Hg10 mi
11:00 PM54 °FClear.2 mph100%30.21 "Hg10 mi
10:30 PM55 °FClear.5 mph94%30.21 "Hg10 mi
10:00 PM57 °FClear.5 mph94%30.21 "Hg5 mi
9:30 PM57 °FClear.5 mph94%30.18 "Hg5 mi
9:00 PM57 °FPartly cloudy.7 mph94%30.18 "Hg4 mi
8:30 PM59 °FScattered clouds.3 mph94%30.18 "Hg4 mi
8:00 PM59 °FSunny.2 mph94%30.18 "Hg10 mi
7:30 PM61 °FSunny.5 mph88%30.15 "Hg10 mi
7:00 PM61 °FSunny.7 mph94%30.15 "Hg10 mi
6:30 PM61 °FSunny.8 mph94%30.15 "Hg10 mi
6:00 PM61 °FMostly cloudy.7 mph94%30.15 "HgN/A
5:30 PM61 °FLight rain. Partly sunny.10 mph94%30.12 "HgN/A
5:00 PM63 °FLight rain. Overcast.13 mph88%30.12 "HgN/A
4:30 PM66 °FMore clouds than sun.13 mph73%30.12 "HgN/A
4:00 PM68 °FBroken clouds.13 mph69%30.09 "HgN/A
3:30 PM72 °FBroken clouds.12 mph61%30.09 "HgN/A
3:00 PM72 °FPartly sunny.14 mph57%30.07 "HgN/A
Weather by CustomWeather, © 2016

See weather overviewHow to use our weather pages